STARLINK-31767 (59605 NORAD) Tracking and Keplerian Element Data

This shows tracking and keplerian element data for the satellite.

Feedback or suggestion? Click here.




ElementValue
Catalog59605
NameSTARLINK-31767
Epoch Orbit750
Epoch Day160.16255226
Epoch Year2024
RAAN87.8428
Inclination43.0031
Eccentricity0.000141
Argument of Perigee279.6505
Mean Anonmoly80.4193
Mean Motion15.40723538
Decay Rate3.548E-05
L11 59605U 24080E 24160.16255226 .00003548 00000+0 92091-4 0 9995
L22 59605 43.0031 87.8428 0001410 279.6505 80.4193 15.40723538 7500



Live tracking and technical data element details for STARLINK-31767 (NORAD 59605). STARLINK-31767 can be tracked NOW for your location showing map with azimuth and elevation plus other details from your city location.







IsCatalogInMostPopularTable: catalog: 59605, numindb: 14
Update: records affected: 1



GetName: 59605 STARLINK-31767

Hit Count: updated at: Fri, 14 Jun 2024 19:11:15 GMT